STARLINK-34106, 63907

Orbit data source: Space-Track

STARLINK-34106, 63907 is a payload satellite owned by SpaceX/Seattle (US) in LEO that was launched on Sat, 10 May 2025 UTC via an FALCON 9 launch vehicle from the Air Force Eastern Test Range (AFETR). Payload-class satellites include a variety of spacecraft equipped with specific instruments for various scientific and technological missions. These include communications satellites like Starlink; space stations such as the ISS; scientific satellites like the Hubble; Earth observation satellites from companies like Planet Labs, Umbra, and HawkEye 360; GPS; miniature CubeSats for education and research; and military/defense satellites.

Loading next visibility...
Identifier
63907, 2025-095T
Orbit
LEO
Country
Flag of USUS
Related business
Manufacturer
SpaceX/Seattle
Mission
Operational Commercial Communications
Bus & Motor
STARLINK V2MO, Unknown motor
Mass
575 kg wet, ~530 kg dry
Launch date (UTC)
2025-05-10 (1 year ago)
Launch vehicle
FALCON 9
Launch site
Air Force Eastern Test Range (AFETR)
Object type
Payload
Rocket body
Debris
Shape & HBR
Box + 2 Pan, 17.7 m
Radar Cross Section
36.964 m², Large (>1 m²)

Expand to show TLE details & history
Last TLE update: 10 hours ago

TLE from 10 hours ago
0 STARLINK-34106
1 63907U 25095T   26171.42635690  .00015763  00000-0  58088-3 0  9992
2 63907  43.0007 315.6986 0002019 278.9725  81.0898 15.27593395 63496
Epoch: 2026-06-20T10:13Z
TLE epoch observation values (Epoch: 2026-06-20T10:13:57.236Z)
Latitude
-0.00001°
Longitude
-106.43104°
Altitude
482.57 km
Speed
7.626 km/s
True Right ascension
21h 02m 47s
True Declination
0° 00' 00"
Sunlit
Object was in full shadow at epoch
Visualization orbit readout
Latitude
Unknown
Longitude
Unknown
Altitude
Unknown
Speed
Unknown
Apparent Right ascension
Unknown
Apparent Declination
Unknown
Sunlit
N/A
Visualization observer readout
Local Sidereal Time
07:18:05
Azimuth
Unknown
Elevation
Unknown
Doppler factor
Unknown
Orbital elements
Apogee altitude
486.34 km
Perigee altitude
483.568 km
Semi-major axis
6,863.091 km
Eccentricity
0.0002
Inclination
43.0007°
RAAN
315.6986°
Arg. of periapsis
278.9725°
True anomaly
81.11266°
Mean anomaly
81.0898°
Eccentric anomaly
81.10123°
Mean motion
3.81736 °/min
Orbital period
94.31 mins
BSTAR
0.00058088
Loading maneuver chart data...
Computing Atmospheric mass density...
Loading historical data...
Loading historical data...
Loading historical data...
Loading historical data...
Loading historical data...
Loading historical data...
Loading historical data...

Documentation

Showing up to 5 results
|